Regional Weather Roundup
Issued by NWS Northern Indiana

Home | Current Version | Previous Version | Graphics & Text | Print | Product List | Glossary On
Versions: 1 2 3 4 5 6 7 8 9 10 11 12 13 14 15 16 17 18 19 20 21 22 23 24 25 26 27 28 29 30 31 32 33 34 35 36 37 38 39 40 41 42 43 44 45 46 47 48 49 50
000
ASUS43 KIWX 051210
RWRIWX

KIWX WEATHER ROUNDUP
NATIONAL WEATHER SERVICE NORTHERN INDIANA
700 AM EST MON DEC 05 2016

NOTE: "FAIR" INDICATES FEW OR NO CLOUDS BELOW 12,000 FEET WITH NO
SIGNIFICANT WEATHER AND/OR OBSTRUCTIONS TO VISIBILITY.

* THESE STATIONS ARE NOT UNDER NWS QUALITY CONTROL. THEY ALSO MAY NOT
  REPORT WEATHER SUCH AS PRECIPITATION OR FOG.

INZ001>027-051300-
NORTHERN INDIANA

CITY           SKY/WX    TMP DP  RH WIND       PRES   REMARKS
GARY*          CLOUDY    34  32  93 W12       30.02S WCI  25
VALPARAISO     CLOUDY    33  30  88 MISG      30.03R
6HR MIN TEMP:  33; 6HR MAX TEMP:  34;

MICHIGAN CITY* CLOUDY    32  32 100 CALM      30.02S
LAPORTE*       CLOUDY    33  33 100 W5        30.02S WCI  29
KNOX*          CLOUDY    32  25  74 W8        30.03R WCI  25
SOUTH BEND     CLOUDY    32  30  92 SW9       30.02R WCI  24
6HR MIN TEMP:  32; 6HR MAX TEMP:  33;

GOSHEN         CLOUDY    33  28  81 W9        30.02R WCI  25
6HR MIN TEMP:  33; 6HR MAX TEMP:  34;

MONTICELLO*    CLOUDY    32  28  83 W3        30.04R
6HR MIN TEMP:  32; 6HR MAX TEMP:  33;

LOGANSPORT*    CLOUDY    32  30  93 W6        30.05S WCI  26
ROCHESTER*     CLOUDY    34  32  93 W5        30.04R WCI  30
WARSAW*        CLOUDY    32  28  86 W7        30.03R WCI  26
ANGOLA*        CLOUDY    34  25  69 W7        30.00R WCI  28
FORT WAYNE     CLOUDY    33  30  88 W6        30.05R WCI  28
6HR MIN TEMP:  33; 6HR MAX TEMP:  34;

HUNTINGTON*    CLOUDY    32  30  93 W7        30.04R WCI  26
6HR MIN TEMP:  32; 6HR MAX TEMP:  33;

PERU/GRISSOM   CLOUDY    32  32  99 W6        30.02F WCI  27
6HR MIN TEMP:  32; 6HR MAX TEMP:  33; 6HR PCP:  0.04;

MARION*        CLOUDY    32  31  94 W5        30.05S WCI  28
6HR MIN TEMP:  25; 6HR MAX TEMP:  89;


$$
INZ028>050-051300-
CENTRAL INDIANA

CITY           SKY/WX    TMP DP  RH WIND       PRES   REMARKS
LAFAYETTE      CLOUDY    32  31  96 SW3       30.06R
6HR MIN TEMP:  32; 6HR MAX TEMP:  33;

KOKOMO*        CLOUDY    32  30  92 W9        30.05R WCI  24
6HR MIN TEMP:  32; 6HR MAX TEMP:  33;

MUNCIE*        CLOUDY    35  31  85 W5        30.05S WCI  31
6HR MIN TEMP:  35; 6HR MAX TEMP:  35;

INDIANAPOLIS   CLOUDY    34  30  85 W5        30.07R WCI  30
6HR MIN TEMP:  34; 6HR MAX TEMP:  35;


$$
MIZ043>046-050>051-056>058-064>065-071>073-077>080-051300-
SOUTHWEST LOWER MICHIGAN

CITY           SKY/WX    TMP DP  RH WIND       PRES   REMARKS
BATTLE CREEK   CLOUDY    34  33  96 W8        29.98R WCI  27
6HR MIN TEMP:  33; 6HR MAX TEMP:  35;

BENTON HARBOR  CLOUDY    37  31  78 W12       30.00S
6HR MIN TEMP:  36; 6HR MAX TEMP:  37;

COLDWATER*     CLOUDY    34  32  94 W8        29.99R WCI  27
6HR MIN TEMP:  33; 6HR MAX TEMP:  34;

HILLSDALE*     CLOUDY    32  32 100 W12       29.96S WCI  23
HOLLAND        CLOUDY    37  32  82 W12       29.96S
6HR MIN TEMP:  36; 6HR MAX TEMP:  38;

GRAND RAPIDS   CLOUDY    35  31  85 SW10      29.96R WCI  27
6HR MIN TEMP:  31; 6HR MAX TEMP:  35; 6HR PCP: TRACE;

KALAMAZOO      CLOUDY    35  30  82 W9        29.99R WCI  28
6HR MIN TEMP:  33; 6HR MAX TEMP:  35;

STURGIS*       CLOUDY    33  31  92 SW7       30.00R WCI  27
6HR MIN TEMP:  33; 6HR MAX TEMP:  34;

THREE RIVERS*  CLOUDY    35  32  92 SW5       30.01R WCI  30
6HR MIN TEMP:  34; 6HR MAX TEMP:  35;


$$
OHZ001>008-015>018-024>025-051300-
NORTHWEST OHIO

CITY           SKY/WX    TMP DP  RH WIND       PRES   REMARKS
WAUSEON*       CLOUDY    34  32  93 W12       30.01R WCI  25
DEFIANCE       CLOUDY    35  29  78 W7        30.04R WCI  29
6HR MIN TEMP:  35; 6HR MAX TEMP:  36;

FINDLAY        CLOUDY    35  29  78 W9        30.03R WCI  28
6HR MIN TEMP:  35; 6HR MAX TEMP:  36;

TOLEDO EXPRESS CLOUDY    35  33  92 W14       30.01R WCI  26
6HR MIN TEMP:  34; 6HR MAX TEMP:  35;

TOLEDO METCALF CLOUDY    37  33  85 W12       30.02R
6HR MIN TEMP:  35; 6HR MAX TEMP:  37;

LIMA           CLOUDY    33  32  96 W9        30.04R WCI  25
6HR MIN TEMP:  33; 6HR MAX TEMP:  34;


$$
AND FOR LAKE MICHIGAN COASTAL AND OPEN LAKE BUOY OBSERVATIONS

STATION/POSITION TEMP    WIND        PRES    VSBY  WAVE
                 AIR SEA DIR/SP/G                  HT/PER
                 (F)     (DEG/KT/KT) (MB)    (MI)  (FT/S)
CALUMET HARBOR    33     240/  5/  9 1015.8R
BURNS HARBOR      34     230/  9/ 11 1016.9S

$$
&&




USA.gov is the U.S. government's official web portal to all federal, state and local government web resources and services.